Hillsdale, MI

5:25 PM EDT on August 28, 2016 (GMT -0400)
Hillsdale Municipal

Weather History for KJYM - April, 2013

Change the Weather History Date:

Thursday, April 25, 2013

  Actual Average Record
Temperature  
Mean Temperature 42 °F -  
Max Temperature 50 °F 59 °F 83 °F (1990)
Min Temperature 34 °F 36 °F 19 °F (1967)
Degree Days  
Heating Degree Days 23    
Moisture  
Dew Point 31 °F    
Average Humidity 69    
Maximum Humidity 94    
Minimum Humidity 43    
Precipitation  
Precipitation 0.00 in - - ()
Sea Level Pressure  
Sea Level Pressure 30.18 in    
Wind  
Wind Speed 9 mph (WSW)    
Max Wind Speed 22 mph    
Max Gust Speed 44 mph    
Visibility 9 miles    
Events Rain , Snow    
Averages and records for this station are not official NWS values.
T = Trace of Precipitation, MM = Missing Value Source: NWS Daily Summary

Daily Weather History Graph

Daily Weather History Graph

Search for Another Location

Airport or City:

Trip Planner

Search our weather history database for the weather conditions in past years. The results will help you decide how hot, cold, wet, or windy it might be!

Date:

Astronomy

Apr. 25, 2013 Rise Set
Actual Time 6:42 AM EDT 8:30 PM EDT
Civil Twilight 6:12 AM EDT 9:00 PM EDT
Nautical Twilight 5:36 AM EDT 9:37 PM EDT
Astronomical Twilight 4:57 AM EDT 10:16 PM EDT
Moon 8:43 PM EDT (4/25) 6:24 AM EDT (4/25)
Length of Visible Light 14h 47m
Length of Day
13h 48m
Full, 100% of the Moon is Illuminated
Apr 25
Full
Apr 25
Full
May 2
Last Quarter
May 9
New
May 18
First Quarter

Hourly Weather History & Observations

Time (EDT) Temp. Windchill Dew Point Humidity Pressure Visibility Wind Dir Wind Speed Gust Speed Precip Events Conditions
12:15 AM 36.7 °F 32.0 °F 25.2 °F 63% 30.13 in 10.0 mi SW 5.8 mph - N/A   Clear
12:35 AM 36.9 °F 31.4 °F 25.3 °F 63% 30.13 in 10.0 mi SW 6.9 mph - N/A   Clear
12:54 AM 37.0 °F 31.6 °F 25.9 °F 64% 30.12 in 10.0 mi SSW 6.9 mph - N/A   Clear
1:15 AM 36.9 °F 31.4 °F 26.1 °F 65% 30.13 in 10.0 mi SW 6.9 mph - N/A   Clear
1:35 AM 36.9 °F 31.4 °F 26.4 °F 66% 30.13 in 10.0 mi SW 6.9 mph - N/A   Clear
1:54 AM 36.9 °F 30.7 °F 26.8 °F 67% 30.13 in 10.0 mi SW 8.1 mph - N/A   Clear
2:15 AM 36.9 °F 30.7 °F 27.1 °F 68% 30.12 in 10.0 mi SW 8.1 mph - N/A   Clear
2:34 AM 36.9 °F 32.2 °F 27.9 °F 70% 30.12 in 10.0 mi SW 5.8 mph - N/A   Clear
2:54 AM 36.9 °F 31.4 °F 28.2 °F 71% 30.11 in 10.0 mi SW 6.9 mph - N/A   Clear
3:15 AM 36.0 °F 31.1 °F 28.8 °F 75% 30.12 in 10.0 mi SW 5.8 mph - N/A   Clear
3:34 AM 36.3 °F 30.8 °F 29.3 °F 76% 30.11 in 10.0 mi SW 6.9 mph - N/A   Clear
3:55 AM 36.0 °F 31.1 °F 29.7 °F 78% 30.11 in 10.0 mi SSW 5.8 mph - N/A   Clear
4:14 AM 35.8 °F 30.9 °F 30.0 °F 80% 30.11 in 10.0 mi SSW 5.8 mph - N/A   Clear
4:34 AM 36.0 °F 31.1 °F 30.6 °F 81% 30.12 in 10.0 mi SSW 5.8 mph - N/A   Clear
4:55 AM 36.0 °F 31.1 °F 30.7 °F 81% 30.11 in 10.0 mi SSW 5.8 mph - N/A   Clear
5:14 AM 35.6 °F 30.7 °F 30.9 °F 83% 30.11 in 10.0 mi South 5.8 mph - N/A   Clear
5:35 AM 35.2 °F 29.5 °F 31.3 °F 85% 30.12 in 10.0 mi South 6.9 mph - N/A   Clear
5:55 AM 34.5 °F 29.4 °F 31.1 °F 87% 30.11 in 10.0 mi South 5.8 mph - N/A   Clear
6:14 AM 34.2 °F 30.0 °F 31.1 °F 89% 30.11 in 10.0 mi South 4.6 mph - N/A   Clear
6:35 AM 34.9 °F 29.0 °F 31.6 °F 88% 30.12 in 10.0 mi South 6.9 mph - N/A   Clear
6:55 AM 35.4 °F 29.7 °F 31.8 °F 87% 30.11 in 10.0 mi SSW 6.9 mph - N/A   Clear
7:14 AM 36.0 °F 29.6 °F 32.0 °F 86% 30.11 in 10.0 mi SSW 8.1 mph - N/A   Clear
7:35 AM 36.5 °F 30.3 °F 32.2 °F 84% 30.11 in 10.0 mi SSW 8.1 mph - N/A   Clear
7:55 AM 37.0 °F 29.8 °F 32.5 °F 84% 30.10 in 10.0 mi SSW 10.4 mph - N/A   Clear
8:14 AM 37.8 °F 30.7 °F 32.7 °F 82% 30.10 in 10.0 mi SSW 10.4 mph - N/A   Clear
8:35 AM 39.0 °F 32.3 °F 32.7 °F 78% 30.10 in 10.0 mi SSW 10.4 mph - N/A   Mostly Cloudy
8:54 AM 39.4 °F 31.8 °F 33.1 °F 78% 30.10 in 10.0 mi SSW 12.7 mph 16.1 mph N/A   Overcast
9:15 AM 40.6 °F 33.8 °F 33.8 °F 77% 30.11 in 10.0 mi SSW 11.5 mph 17.3 mph N/A   Overcast
9:34 AM 41.4 °F 33.6 °F 34.0 °F 75% 30.11 in 10.0 mi SW 15.0 mph 19.6 mph N/A   Mostly Cloudy
9:55 AM 39.0 °F 31.4 °F 34.5 °F 84% 30.11 in 5.0 mi SW 12.7 mph 18.4 mph N/A Rain Light Rain
10:15 AM 38.7 °F 30.9 °F 35.4 °F 88% 30.11 in 4.0 mi SW 12.7 mph 16.1 mph N/A Rain Light Rain
10:34 AM 38.1 °F 30.7 °F 36.0 °F 92% 30.12 in 3.0 mi WSW 11.5 mph 18.4 mph N/A Rain Light Rain
10:55 AM 40.3 °F 33.0 °F 37.8 °F 91% 30.12 in 7.0 mi SW 12.7 mph 19.6 mph N/A Rain Light Rain
11:15 AM 41.4 °F 34.0 °F 38.5 °F 89% 30.12 in 10.0 mi SW 13.8 mph 17.3 mph N/A Rain Light Rain
11:34 AM 42.3 °F 35.9 °F 38.5 °F 86% 30.13 in 10.0 mi WSW 11.5 mph 20.7 mph N/A   Light Drizzle
11:55 AM 43.2 °F 37.4 °F 37.9 °F 82% 30.13 in 10.0 mi WSW 10.4 mph - N/A   Overcast
12:15 PM 45.1 °F 39.1 °F 37.4 °F 74% 30.13 in 10.0 mi SW 12.7 mph 18.4 mph N/A   Mostly Cloudy
12:34 PM 45.0 °F 38.5 °F 36.3 °F 72% 30.13 in 10.0 mi SW 13.8 mph 19.6 mph N/A   Mostly Cloudy
12:55 PM 37.2 °F 28.7 °F 33.6 °F 87% 30.17 in 1.5 mi West 13.8 mph 43.7 mph N/A Snow Light Snow
1:14 PM 37.4 °F 30.8 °F 35.8 °F 94% 30.17 in 4.0 mi WSW 9.2 mph - N/A Rain Light Rain
1:34 PM 40.6 °F 35.4 °F 38.1 °F 91% 30.16 in 10.0 mi West 8.1 mph - N/A   Mostly Cloudy
1:55 PM 44.8 °F 38.3 °F 38.8 °F 80% 30.15 in 10.0 mi West 13.8 mph - N/A   Scattered Clouds
2:14 PM 46.8 °F - 36.1 °F 67% 30.16 in 10.0 mi West 20.7 mph 25.3 mph N/A   Scattered Clouds
2:35 PM 41.0 °F 32.5 °F 34.9 °F 79% 30.18 in 5.0 mi WNW 17.3 mph 26.5 mph N/A Rain Light Rain
2:55 PM 44.1 °F 38.1 °F 36.1 °F 74% 30.17 in 10.0 mi West 11.5 mph - N/A   Mostly Cloudy
3:14 PM 47.5 °F - 35.8 °F 64% 30.17 in 10.0 mi West 15.0 mph 20.7 mph N/A   Scattered Clouds
3:35 PM 48.4 °F - 34.2 °F 58% 30.18 in 10.0 mi West 16.1 mph 26.5 mph N/A   Scattered Clouds
3:54 PM 48.9 °F - 30.9 °F 50% 30.18 in 10.0 mi West 21.9 mph 27.6 mph N/A   Scattered Clouds
4:15 PM 49.5 °F - 29.7 °F 47% 30.19 in 10.0 mi West 16.1 mph 27.6 mph N/A   Mostly Cloudy
4:34 PM 49.1 °F - 28.9 °F 46% 30.19 in 10.0 mi WNW 17.3 mph 26.5 mph N/A   Overcast
4:55 PM 48.9 °F - 29.1 °F 46% 30.20 in 10.0 mi WNW 18.4 mph 26.5 mph N/A   Mostly Cloudy
5:15 PM 50.0 °F - 30.6 °F 47% 30.21 in 10.0 mi WNW 20.7 mph 28.8 mph N/A   Mostly Cloudy
5:34 PM 47.5 °F - 28.6 °F 48% 30.22 in 10.0 mi WNW 18.4 mph 26.5 mph N/A   Scattered Clouds
5:55 PM 49.1 °F - 27.3 °F 43% 30.23 in 10.0 mi West 16.1 mph 21.9 mph N/A   Scattered Clouds
6:15 PM 49.6 °F - 27.9 °F 43% 30.24 in 10.0 mi WNW 17.3 mph - N/A   Mostly Cloudy
6:34 PM 47.3 °F - 26.1 °F 44% 30.24 in 10.0 mi WNW 18.4 mph 21.9 mph N/A   Mostly Cloudy
6:55 PM 47.7 °F - 25.9 °F 43% 30.25 in 10.0 mi WNW 16.1 mph 19.6 mph N/A   Scattered Clouds
7:15 PM 47.5 °F - 26.1 °F 43% 30.26 in 10.0 mi West 12.7 mph 17.3 mph N/A   Scattered Clouds
7:34 PM 46.8 °F - 25.2 °F 43% 30.27 in 10.0 mi WNW 15.0 mph - N/A   Clear
7:55 PM 46.0 °F 40.6 °F 25.7 °F 45% 30.27 in 10.0 mi NW 11.5 mph - N/A   Clear
8:14 PM 45.1 °F 39.9 °F 25.7 °F 47% 30.28 in 10.0 mi WNW 10.4 mph - N/A   Clear
8:35 PM 43.7 °F 40.3 °F 25.9 °F 50% 30.29 in 10.0 mi WNW 5.8 mph - N/A   Clear
8:55 PM 42.4 °F 39.6 °F 25.9 °F 52% 30.29 in 10.0 mi WNW 4.6 mph - N/A   Clear
9:14 PM 42.3 °F - 25.9 °F 52% 30.30 in 10.0 mi Calm Calm - N/A   Clear
9:35 PM 41.5 °F - 25.9 °F 54% 30.31 in 10.0 mi Calm Calm - N/A   Clear
9:55 PM 39.6 °F - 26.2 °F 59% 30.32 in 10.0 mi Calm Calm - N/A   Clear
10:14 PM 40.5 °F - 24.8 °F 54% 30.32 in 10.0 mi Calm Calm - N/A   Clear
10:35 PM 38.7 °F - 26.4 °F 61% 30.33 in 10.0 mi Calm Calm - N/A   Clear
10:55 PM 37.9 °F - 27.7 °F 67% 30.33 in 10.0 mi Calm Calm - N/A   Clear
11:14 PM 37.2 °F - 26.8 °F 66% 30.34 in 10.0 mi Calm Calm - N/A   Clear
11:35 PM 37.2 °F - 26.8 °F 66% 30.34 in 10.0 mi Calm Calm - N/A   Clear
11:55 PM 37.2 °F - 26.8 °F 66% 30.34 in 10.0 mi Calm Calm - N/A   Clear